Hourly Data Report for March 19, 2020

MAYO A
YUKON TERRITORY
Current Station Operator: NAVCAN

63°36'59.000" N
135°52'06.000" W
503.80 m
2100701
71965
YMA

Download Data

Hourly Data (March 2020)
Hourly Data Report for March 19, 2020
TIME
LST
Temp Definition
°C
Dew Point Definition
°C
Rel Hum Definition
%
Precip. Amount Definition
mm

Wind Dir Definition
10's deg

Wind Spd Definition
km/h
Visibility Definition
km
Stn Press Definition
kPa
Hmdx Definition


Wind Chill Definition


Weather Definition


00:00 -8.8 -10.1 90   27 4 24.1 96.48   -11 LegendNANA
01:00 -7.0 -9.0 86   36 2 32.2 96.50   -8 Cloudy
02:00 -6.7 -9.2 83   36 2 32.2 96.51   -8 LegendNANA
03:00 -9.0 -10.6 88   36 2 32.2 96.55   -10 LegendNANA
04:00 -8.5 -10.0 89   0 1 32.2 96.58   -9 Cloudy
05:00 -8.6 -9.9 90   36 2 32.2 96.56   -10 LegendNANA
06:00 -8.6 -10.4 86   36 1 32.2 96.55   -9 LegendNANA
07:00 -9.3 -10.6 90   28 3 32.2 96.57   -11 Cloudy
08:00 -8.8 -10.4 88   36 1 32.2 96.59   -9 LegendNANA
09:00 -8.0 -9.8 86   36 3 32.2 96.59   -10 LegendNANA
10:00 -5.4 -8.4 80   8 4 32.2 96.57   -7 Mostly Cloudy
11:00 -4.6 -7.8 78   36 2 32.2 96.56   -5 LegendNANA
12:00 -2.6 -7.2 71   7 4 32.2 96.56   -4 LegendNANA
13:00 -1.1 -6.5 67   8 8 32.2 96.48   -4 Mainly Clear
14:00 0.7 -6.4 59   8 8 32.2 96.42     LegendNANA
15:00 1.8 -6.5 54   11 16 32.2 96.31     LegendNANA
16:00 1.8 -6.6 54   9 16 32.2 96.21     Cloudy
17:00 1.8 -6.4 55   6 13 32.2 96.14     LegendNANA
18:00 0.6 -6.6 59   8 17 32.2 96.07     LegendNANA
19:00 0.3 -6.2 62   8 21 32.2 96.05     Cloudy
20:00 0.0 -6.3 63   8 20 32.2 95.95   -5 LegendNANA
21:00 0.1 -6.7 60   4 15 32.2 95.88     LegendNANA
22:00 -0.3 -6.8 62   4 7 32.2 95.85   -3 Cloudy
23:00 -0.9 -7.0 64   4 12 32.2 95.80   -5 LegendNANA

Notes on Data Quality.

Legend

  • E = Estimated
  • M = Missing
  • NA = Not Available*
  • [empty] = Indicates an unobserved value
Date modified: